Total_Precipitation_Accumulation
0.48 0.49 0.50 0.51 0.52 0.53 0.53 0.55 0.60 0.70 0.81 1.01 1.30 1.70 1.91 2.04 2.03 2.04 1.94 1.72 1.51 1.52 1.68 1.66 1.64 1.65 1.65 1.62 1.57 1.71 1.65 1.40 1.32 1.51 1.49 1.35 1.19 1.14 1.11 1.12 1.27 1.39 1.39
0.42 0.38 0.37 0.38 0.37 0.37 0.40 0.52 0.55 0.63 0.77 1.03 1.31 1.63 1.96 2.03 2.03 2.04 1.99 1.87 1.74 1.74 1.78 1.99 2.10 2.07 2.19 2.17 1.99 2.14 2.15 1.79 1.55 1.81 2.11 1.84 1.63 1.23 1.11 1.17 1.21 1.31 1.46
0.37 0.36 0.34 0.32 0.29 0.26 0.26 0.38 0.47 0.60 0.88 1.21 1.49 1.67 1.94 2.02 2.05 2.01 2.02 2.04 1.99 1.89 1.91 2.03 2.21 2.22 2.30 2.41 2.48 2.42 2.53 2.35 1.95 1.81 2.10 2.02 1.88 1.68 1.29 1.20 1.28 1.41 1.50
0.35 0.34 0.36 0.33 0.26 0.22 0.21 0.28 0.37 0.59 0.94 1.28 1.53 1.77 2.11 2.16 2.09 2.10 2.09 2.10 2.12 2.08 2.16 2.18 2.30 2.32 2.34 2.45 2.55 2.52 2.66 2.74 2.35 2.05 1.84 1.67 1.68 1.81 1.59 1.35 1.30 1.46 1.50
0.30 0.28 0.29 0.29 0.27 0.26 0.27 0.33 0.46 0.68 0.96 1.18 1.45 1.81 2.04 2.12 2.23 2.14 2.11 2.11 2.17 2.19 2.23 2.30 2.46 2.46 2.44 2.42 2.63 2.68 2.78 2.71 2.62 2.47 2.31 2.14 1.90 1.55 1.64 1.68 1.53 1.44 1.35
0.31 0.30 0.30 0.29 0.31 0.33 0.38 0.48 0.63 0.77 1.00 1.20 1.42 1.60 1.83 1.95 2.07 2.14 2.07 2.07 2.13 2.23 2.12 2.04 2.18 2.25 2.29 2.28 2.47 2.65 2.79 2.77 2.79 2.71 2.43 2.37 2.24 1.87 1.81 1.69 1.60 1.61 1.42
0.37 0.40 0.42 0.47 0.53 0.57 0.60 0.69 0.79 0.90 1.02 1.14 1.24 1.31 1.46 1.62 1.65 1.79 1.87 1.99 1.99 2.06 2.10 1.98 1.97 2.00 1.95 1.99 2.12 2.20 2.28 2.42 2.58 2.49 2.28 2.24 2.08 2.05 2.06 1.97 1.74 1.58 1.36
0.54 0.65 0.72 0.79 0.86 0.87 0.86 0.93 0.98 0.97 0.98 1.04 1.10 1.14 1.19 1.27 1.33 1.36 1.39 1.55 1.70 1.74 1.83 1.83 1.77 1.81 1.85 1.86 1.95 1.96 1.98 2.02 2.10 2.09 2.18 2.24 2.10 2.02 1.96 2.00 2.15 1.92 1.68
0.82 0.91 1.01 1.02 1.01 1.00 0.96 0.97 0.99 0.97 0.96 0.99 1.00 0.93 0.91 0.97 1.09 1.12 1.18 1.23 1.30 1.31 1.37 1.46 1.54 1.63 1.68 1.73 1.88 1.95 1.94 1.91 1.90 1.99 2.06 2.03 2.02 2.00 1.89 1.87 2.02 2.12 1.96
1.17 1.28 1.36 1.28 1.20 1.21 1.25 1.14 1.03 0.96 0.91 0.92 0.94 0.86 0.82 0.88 0.93 0.92 0.97 0.96 0.98 0.99 1.04 1.14 1.31 1.53 1.65 1.69 1.76 1.81 1.89 1.93 1.90 1.99 2.10 2.13 2.13 2.14 2.07 1.94 1.93 1.89 1.92
1.56 1.65 1.66 1.56 1.37 1.25 1.24 1.17 1.04 0.91 0.80 0.78 0.84 0.85 0.80 0.82 0.87 0.85 0.80 0.75 0.79 0.85 0.96 1.00 1.14 1.30 1.47 1.66 1.80 1.81 1.81 1.85 1.83 1.79 1.89 2.02 2.11 2.23 2.24 2.23 2.11 1.97 1.92
1.46 1.49 1.44 1.43 1.31 1.22 1.13 1.10 0.97 0.81 0.74 0.78 0.80 0.82 0.74 0.70 0.74 0.75 0.78 0.69 0.66 0.68 0.76 0.90 1.09 1.21 1.29 1.33 1.42 1.50 1.54 1.58 1.64 1.63 1.60 1.68 1.78 1.94 2.09 2.18 2.13 2.11 2.01
1.14 1.23 1.27 1.15 1.11 1.04 0.99 1.08 1.09 0.95 0.91 0.93 0.98 0.90 0.76 0.71 0.72 0.71 0.76 0.70 0.66 0.67 0.70 0.83 0.98 1.04 1.09 1.13 1.15 1.25 1.34 1.36 1.35 1.40 1.37 1.39 1.47 1.62 1.77 1.86 1.94 2.05 2.09
0.95 0.99 1.04 0.99 1.01 0.95 0.92 1.04 1.09 1.08 1.13 1.18 1.14 0.97 0.83 0.76 0.71 0.68 0.69 0.68 0.68 0.70 0.74 0.88 0.96 0.98 0.94 1.03 1.06 1.12 1.16 1.12 1.07 1.11 1.11 1.16 1.21 1.29 1.43 1.58 1.80 1.98 2.09
0.75 0.71 0.69 0.70 0.76 0.75 0.72 0.78 0.88 0.97 1.08 1.14 1.04 0.90 0.78 0.68 0.63 0.66 0.63 0.67 0.74 0.73 0.76 0.81 0.90 0.94 0.91 0.96 1.02 1.02 0.96 0.96 0.95 0.90 0.81 0.83 0.90 0.93 1.02 1.07 1.36 1.61 1.84
0.50 0.48 0.45 0.45 0.50 0.46 0.47 0.51 0.62 0.77 0.96 1.04 0.93 0.76 0.69 0.66 0.60 0.58 0.55 0.55 0.58 0.61 0.64 0.69 0.84 0.94 0.84 0.95 0.96 0.88 0.81 0.78 0.83 0.80 0.72 0.70 0.74 0.66 0.63 0.68 0.90 1.20 1.40
0.40 0.40 0.40 0.39 0.42 0.38 0.39 0.47 0.54 0.68 0.77 0.80 0.74 0.62 0.55 0.52 0.48 0.47 0.48 0.49 0.51 0.54 0.59 0.62 0.76 0.85 0.93 0.87 0.73 0.77 0.76 0.77 0.80 0.81 0.84 0.76 0.71 0.79 0.71 0.65 0.72 0.80 0.92
0.34 0.36 0.38 0.38 0.42 0.45 0.47 0.56 0.62 0.63 0.65 0.70 0.68 0.58 0.50 0.46 0.44 0.42 0.43 0.51 0.51 0.51 0.55 0.59 0.61 0.69 0.83 0.77 0.62 0.67 0.66 0.77 0.84 0.87 0.95 0.96 0.89 0.88 0.95 0.89 0.90 0.87 0.80
0.21 0.22 0.23 0.24 0.29 0.34 0.38 0.40 0.42 0.44 0.45 0.48 0.53 0.47 0.40 0.41 0.45 0.43 0.47 0.51 0.51 0.54 0.55 0.58 0.60 0.66 0.70 0.68 0.61 0.64 0.69 0.83 0.84 0.80 0.91 0.96 0.90 0.95 1.01 1.12 1.19 1.11 0.96
0.11 0.11 0.11 0.12 0.13 0.17 0.26 0.29 0.28 0.24 0.23 0.25 0.30 0.32 0.31 0.33 0.39 0.49 0.54 0.51 0.47 0.52 0.54 0.52 0.51 0.55 0.56 0.62 0.54 0.65 0.76 0.81 0.81 0.82 0.88 1.02 0.95 0.93 0.90 0.99 1.14 1.13 1.00
0.09 0.09 0.09 0.10 0.11 0.14 0.17 0.20 0.23 0.18 0.17 0.17 0.20 0.22 0.25 0.29 0.37 0.44 0.42 0.40 0.41 0.44 0.45 0.49 0.48 0.49 0.55 0.66 0.67 0.73 0.75 0.79 0.86 0.95 0.99 0.97 1.06 0.89 0.85 0.86 0.88 0.97 0.96
0.08 0.08 0.08 0.09 0.11 0.11 0.11 0.13 0.13 0.15 0.16 0.14 0.15 0.17 0.17 0.19 0.23 0.29 0.33 0.35 0.36 0.37 0.36 0.37 0.37 0.41 0.52 0.60 0.62 0.65 0.70 0.77 0.78 0.83 0.83 0.80 0.90 0.75 0.67 0.63 0.69 0.77 0.82
0.06 0.06 0.08 0.09 0.11 0.10 0.09 0.09 0.11 0.14 0.17 0.15 0.13 0.14 0.16 0.16 0.18 0.24 0.28 0.32 0.35 0.35 0.33 0.31 0.33 0.36 0.41 0.48 0.51 0.51 0.51 0.54 0.57 0.55 0.64 0.66 0.65 0.60 0.53 0.59 0.63 0.65 0.68
0.05 0.07 0.11 0.11 0.11 0.10 0.11 0.12 0.12 0.13 0.15 0.14 0.13 0.14 0.15 0.17 0.16 0.20 0.27 0.34 0.33 0.29 0.28 0.30 0.33 0.38 0.39 0.38 0.39 0.43 0.43 0.42 0.48 0.47 0.49 0.49 0.49 0.50 0.52 0.55 0.60 0.65 0.70
0.05 0.07 0.10 0.12 0.12 0.13 0.13 0.14 0.13 0.13 0.13 0.12 0.12 0.13 0.14 0.16 0.16 0.15 0.18 0.26 0.28 0.26 0.28 0.31 0.34 0.38 0.40 0.36 0.32 0.32 0.39 0.45 0.50 0.56 0.51 0.47 0.48 0.51 0.57 0.60 0.60 0.64 0.68
0.06 0.06 0.07 0.10 0.11 0.13 0.15 0.15 0.17 0.17 0.16 0.14 0.14 0.14 0.14 0.15 0.14 0.14 0.15 0.19 0.19 0.22 0.22 0.20 0.23 0.21 0.20 0.20 0.20 0.22 0.27 0.34 0.41 0.55 0.62 0.64 0.69 0.72 0.72 0.70 0.62 0.58 0.58